Find UOSAT-OSCAR-36

NORAD ID: 25693 Int'l Des: 1999-021 Owner: SSTL Country: UK operational
LEOCIRCULAR

Live-Position

3D-Globus wird geladen...

Über UOSAT-OSCAR-36

Beschreibung wird geladen...

Nächste Überflüge

Passes for default location (London). Set your location on the main map for personalized predictions.

Höhenverlauf

Loading altitude history...

Zweizeiliger Elementsatz

1 25693U 99021A 26106.78932422 .00000254 00000-0 47936-4 0 9992
2 25693 64.5539 250.6143 0032728 229.8453 129.9787 14.84202935457732
Epoch: 16. Apr. 2026 • Age: 10 hours

Aktueller Status

Höhe 604.0 km
Geschwindigkeit 7.57 km/s
Subsatellitenpunkt 3.01°N, 140.84°E
Startdatum 21. Apr. 1999
Alter 26.9 years
Typ other

Technische Details

Klassifizierung Payload
Masse 325.00 kg
Trockenmasse 325.00 kg
Gesamtmasse 325.00 kg
Länge 1.00 m
Durchmesser 0.60 m
Spannweite 6.00 m
Form Nonag Box + Ant
Hersteller SSTL
Bus-Typ Minisat-400
Phasenstatus In Orbit
Besitzer/Staat SSTL/UK

Most Searched